| time (UTC) | temp C | wind direction | speed KPH | gust KPH | rain 1hr cm | rain 24hr cm | rain mn cm | humidity % | barometer mb |
| 20260504234510 | 22 | 32 | 24.1 | 0.0 | 0.00 | 0.00 | 0.00 | 29 | 999.2 |
| 20260504233007 | 22 | 42 | 25.7 | 0.0 | 0.00 | 0.00 | 0.00 | 29 | 998.5 |
| 20260504231506 | 23 | 52 | 25.7 | 0.0 | 0.00 | 0.00 | 0.00 | 28 | 997.9 |
| 20260504230006 | 23 | 43 | 29.0 | 0.0 | 0.00 | 0.00 | 0.00 | 27 | 997.4 |
| 20260504224507 | 24 | 61 | 20.9 | 0.0 | 0.00 | 0.00 | 0.00 | 26 | 997.2 |
| 20260504223005 | 26 | 355 | 14.5 | 0.0 | 0.00 | 0.00 | 0.00 | 20 | 996.9 |
| 20260504221503 | 26 | 346 | 12.9 | 0.0 | 0.00 | 0.00 | 0.00 | 15 | 996.8 |
| 20260504214502 | 26 | 345 | 11.3 | 0.0 | 0.00 | 0.00 | 0.00 | 15 | 997.0 |
| 20260504213002 | 26 | 36 | 8.0 | 0.0 | 0.00 | 0.00 | 0.00 | 15 | 997.1 |
| 20260504211558 | 27 | 9 | 8.0 | 0.0 | 0.00 | 0.00 | 0.00 | 15 | 997.4 |
| 20260504210104 | 27 | 351 | 8.0 | 0.0 | 0.00 | 0.00 | 0.00 | 15 | 997.5 |
| 20260504204602 | 26 | 324 | 11.3 | 0.0 | 0.00 | 0.00 | 0.00 | 15 | 997.9 |
| 20260504203056 | 26 | 42 | 6.4 | 0.0 | 0.00 | 0.00 | 0.00 | 16 | 998.0 |
| 20260504201548 | 26 | 174 | 8.0 | 0.0 | 0.00 | 0.00 | 0.00 | 14 | 998.2 |
| 20260504200047 | 26 | 132 | 6.4 | 0.0 | 0.00 | 0.00 | 0.00 | 15 | 998.4 |
| 20260504194547 | 25 | 211 | 12.9 | 0.0 | 0.00 | 0.00 | 0.00 | 15 | 998.5 |
| 20260504193058 | 25 | 240 | 12.9 | 0.0 | 0.00 | 0.00 | 0.00 | 15 | 998.6 |
| 20260504191543 | 26 | 267 | 4.8 | 0.0 | 0.00 | 0.00 | 0.00 | 15 | 998.8 |
| 20260504190042 | 25 | 63 | 11.3 | 0.0 | 0.00 | 0.00 | 0.00 | 16 | 999.1 |
| 20260504184539 | 25 | 25 | 9.7 | 0.0 | 0.00 | 0.00 | 0.00 | 17 | 999.2 |
| 20260504183041 | 25 | 94 | 8.0 | 0.0 | 0.00 | 0.00 | 0.00 | 17 | 999.4 |
| 20260504181535 | 25 | 82 | 8.0 | 0.0 | 0.00 | 0.00 | 0.00 | 18 | 999.7 |
| 20260504180030 | 23 | 61 | 8.0 | 0.0 | 0.00 | 0.00 | 0.00 | 20 | 999.8 |
| 20260504174527 | 23 | 71 | 11.3 | 0.0 | 0.00 | 0.00 | 0.00 | 20 | 1000.3 |
| 20260504173025 | 23 | 42 | 9.7 | 0.0 | 0.00 | 0.00 | 0.00 | 20 | 1000.5 |
| 20260504171523 | 23 | 59 | 12.9 | 0.0 | 0.00 | 0.00 | 0.00 | 18 | 1000.8 |
| 20260504081505 | 8 | 209 | 1.6 | 0.0 | 0.00 | 0.00 | 0.00 | 57 | 1001.8 |
| 20260504044539 | 13 | 110 | 16.1 | 0.0 | 0.00 | 0.00 | 0.00 | 43 | 1003.3 |
| 20260504043043 | 13 | 113 | 14.5 | 0.0 | 0.00 | 0.00 | 0.00 | 41 | 1003.6 |
| 20260504041536 | 14 | 115 | 11.3 | 0.0 | 0.00 | 0.00 | 0.00 | 40 | 1003.7 |
| 20260504040035 | 14 | 94 | 6.4 | 0.0 | 0.00 | 0.00 | 0.00 | 39 | 1003.8 |
| 20260504034539 | 15 | 74 | 3.2 | 0.0 | 0.00 | 0.00 | 0.00 | 38 | 1003.8 |
| 20260504033039 | 15 | 72 | 1.6 | 0.0 | 0.00 | 0.00 | 0.00 | 37 | 1004.0 |
| 20260504031534 | 16 | 77 | 6.4 | 0.0 | 0.00 | 0.00 | 0.00 | 35 | 1003.9 |
| 20260504030034 | 16 | 71 | 6.4 | 0.0 | 0.00 | 0.00 | 0.00 | 34 | 1003.7 |
| 20260504024533 | 17 | 66 | 4.8 | 0.0 | 0.00 | 0.00 | 0.00 | 33 | 1003.7 |
| 20260504023033 | 17 | 70 | 4.8 | 0.0 | 0.00 | 0.00 | 0.00 | 33 | 1003.7 |
| 20260504020040 | 20 | 58 | 8.0 | 0.0 | 0.00 | 0.00 | 0.00 | 29 | 1003.6 |
| 20260504014537 | 20 | 59 | 8.0 | 0.0 | 0.00 | 0.00 | 0.00 | 28 | 1003.5 |
| 20260504013031 | 21 | 41 | 8.0 | 0.0 | 0.00 | 0.00 | 0.00 | 26 | 1003.4 |
| 20260504011533 | 22 | 49 | 8.0 | 0.0 | 0.00 | 0.00 | 0.00 | 25 | 1003.5 |
| 20260504010030 | 22 | 46 | 11.3 | 0.0 | 0.00 | 0.00 | 0.00 | 23 | 1003.4 |
| 20260504004529 | 23 | 36 | 11.3 | 0.0 | 0.00 | 0.00 | 0.00 | 23 | 1003.5 |
| 20260504003028 | 23 | 59 | 12.9 | 0.0 | 0.00 | 0.00 | 0.00 | 22 | 1003.5 |
| 20260504001527 | 23 | 36 | 11.3 | 0.0 | 0.00 | 0.00 | 0.00 | 22 | 1003.6 |
| 20260504000026 | 23 | 32 | 9.7 | 0.0 | 0.00 | 0.00 | 0.00 | 20 | 1003.9 |